| time (UTC) | temp F | wind direction | speed knots | gust knots | rain 1hr in | rain 24hr in | rain mn in | humidity % | barometer mb |
| 20260502232338 | 53 | 96 | 0.0 | 0.0 | 0.00 | 0.00 | 0.00 | 62 | 1007.4 |
| 20260502231837 | 53 | 90 | 0.0 | 0.0 | 0.00 | 0.00 | 0.00 | 63 | 1007.5 |
| 20260502231336 | 53 | 108 | 0.0 | 0.0 | 0.00 | 0.00 | 0.00 | 62 | 1007.5 |
| 20260502230835 | 54 | 117 | 0.0 | 0.0 | 0.00 | 0.00 | 0.00 | 61 | 1007.5 |
| 20260502230335 | 54 | 90 | 0.0 | 0.0 | 0.00 | 0.00 | 0.00 | 59 | 1007.5 |
| 20260502225833 | 54 | 106 | 0.0 | 0.0 | 0.00 | 0.00 | 0.00 | 58 | 1007.6 |
| 20260502225332 | 54 | 106 | 1.7 | 1.7 | 0.00 | 0.00 | 0.00 | 58 | 1007.7 |
| 20260502224832 | 53 | 101 | 0.0 | 0.0 | 0.00 | 0.00 | 0.00 | 59 | 1007.7 |
| 20260502224331 | 53 | 109 | 0.0 | 0.0 | 0.00 | 0.00 | 0.00 | 61 | 1007.8 |
| 20260502223829 | 55 | 108 | 0.0 | 0.0 | 0.00 | 0.00 | 0.00 | 59 | 1007.8 |
| 20260502223328 | 55 | 126 | 0.9 | 1.7 | 0.00 | 0.00 | 0.00 | 58 | 1007.8 |
| 20260502222828 | 56 | 110 | 0.0 | 1.7 | 0.00 | 0.00 | 0.00 | 55 | 1007.8 |
| 20260502222327 | 56 | 99 | 0.0 | 0.0 | 0.00 | 0.00 | 0.00 | 53 | 1007.9 |
| 20260502221826 | 56 | 115 | 0.0 | 0.0 | 0.00 | 0.00 | 0.00 | 53 | 1007.9 |
| 20260502221325 | 56 | 108 | 0.0 | 1.7 | 0.00 | 0.00 | 0.00 | 53 | 1007.8 |
| 20260502220824 | 56 | 102 | 0.0 | 0.0 | 0.00 | 0.00 | 0.00 | 54 | 1007.9 |
| 20260502220324 | 56 | 81 | 0.0 | 0.0 | 0.00 | 0.00 | 0.00 | 53 | 1007.9 |
| 20260502215823 | 57 | 98 | 0.0 | 0.0 | 0.00 | 0.00 | 0.00 | 53 | 1007.9 |
| 20260502215322 | 57 | 96 | 0.0 | 0.0 | 0.00 | 0.00 | 0.00 | 53 | 1007.9 |
| 20260502214821 | 58 | 120 | 0.0 | 0.0 | 0.00 | 0.00 | 0.00 | 51 | 1007.9 |
| 20260502214320 | 59 | 132 | 0.0 | 1.7 | 0.00 | 0.00 | 0.00 | 48 | 1007.9 |
| 20260502213819 | 60 | 192 | 0.0 | 0.0 | 0.00 | 0.00 | 0.00 | 46 | 1008.0 |
| 20260502213318 | 60 | 172 | 0.0 | 1.7 | 0.00 | 0.00 | 0.00 | 46 | 1008.0 |
| 20260502212817 | 60 | 138 | 1.7 | 1.7 | 0.00 | 0.00 | 0.00 | 46 | 1008.0 |
| 20260502212316 | 60 | 192 | 0.9 | 2.6 | 0.00 | 0.00 | 0.00 | 46 | 1008.0 |
| 20260502211816 | 60 | 168 | 0.0 | 1.7 | 0.00 | 0.00 | 0.00 | 46 | 1008.0 |
| 20260502211315 | 60 | 204 | 0.9 | 2.6 | 0.00 | 0.00 | 0.00 | 47 | 1008.1 |
| 20260502210813 | 60 | 126 | 0.9 | 1.7 | 0.00 | 0.00 | 0.00 | 47 | 1008.2 |
| 20260502210313 | 60 | 162 | 0.9 | 1.7 | 0.00 | 0.00 | 0.00 | 47 | 1008.2 |
| 20260502205811 | 60 | 153 | 0.0 | 1.7 | 0.00 | 0.00 | 0.00 | 46 | 1008.2 |
| 20260502205311 | 60 | 155 | 0.0 | 1.7 | 0.00 | 0.00 | 0.00 | 46 | 1008.2 |
| 20260502204810 | 61 | 186 | 0.0 | 1.7 | 0.00 | 0.00 | 0.00 | 47 | 1008.2 |
| 20260502204309 | 61 | 143 | 0.0 | 0.9 | 0.00 | 0.00 | 0.00 | 47 | 1008.2 |
| 20260502203808 | 61 | 157 | 0.0 | 0.0 | 0.00 | 0.00 | 0.00 | 47 | 1008.3 |
| 20260502203307 | 62 | 186 | 0.0 | 1.7 | 0.00 | 0.00 | 0.00 | 47 | 1008.3 |
| 20260502202806 | 62 | 217 | 0.0 | 0.0 | 0.00 | 0.00 | 0.00 | 45 | 1008.3 |
| 20260502202305 | 62 | 134 | 0.9 | 1.7 | 0.00 | 0.00 | 0.00 | 45 | 1008.2 |
| 20260502201804 | 62 | 124 | 0.0 | 1.7 | 0.00 | 0.00 | 0.00 | 45 | 1008.2 |
| 20260502201304 | 62 | 142 | 0.0 | 1.7 | 0.00 | 0.00 | 0.00 | 44 | 1008.2 |
| 20260502200803 | 63 | 175 | 0.0 | 1.7 | 0.00 | 0.00 | 0.00 | 45 | 1008.2 |
| 20260502200302 | 63 | 182 | 0.0 | 1.7 | 0.00 | 0.00 | 0.00 | 44 | 1008.2 |
| 20260502195801 | 64 | 174 | 1.7 | 1.7 | 0.00 | 0.00 | 0.00 | 44 | 1008.3 |
| 20260502195300 | 64 | 125 | 1.7 | 2.6 | 0.00 | 0.00 | 0.00 | 43 | 1008.3 |
| 20260502194759 | 64 | 133 | 0.9 | 2.6 | 0.00 | 0.00 | 0.00 | 43 | 1008.3 |
| 20260502194258 | 65 | 174 | 1.7 | 3.5 | 0.00 | 0.00 | 0.00 | 42 | 1008.3 |
| 20260502193757 | 65 | 160 | 1.7 | 3.5 | 0.00 | 0.00 | 0.00 | 43 | 1008.3 |
| 20260502193256 | 65 | 141 | 0.9 | 1.7 | 0.00 | 0.00 | 0.00 | 43 | 1008.4 |
| 20260502192756 | 65 | 133 | 0.9 | 3.5 | 0.00 | 0.00 | 0.00 | 43 | 1008.3 |
| 20260502192254 | 65 | 149 | 1.7 | 2.6 | 0.00 | 0.00 | 0.00 | 43 | 1008.3 |
| 20260502191754 | 66 | 120 | 1.7 | 3.5 | 0.00 | 0.00 | 0.00 | 42 | 1008.3 |
| 20260502191253 | 66 | 96 | 1.7 | 2.6 | 0.00 | 0.00 | 0.00 | 42 | 1008.3 |
| 20260502190752 | 66 | 89 | 1.7 | 3.5 | 0.00 | 0.00 | 0.00 | 44 | 1008.3 |
| 20260502190251 | 65 | 106 | 0.9 | 1.7 | 0.00 | 0.00 | 0.00 | 43 | 1008.4 |
| 20260502185750 | 65 | 109 | 1.7 | 1.7 | 0.00 | 0.00 | 0.00 | 45 | 1008.3 |
| 20260502185250 | 67 | 108 | 0.9 | 2.6 | 0.00 | 0.00 | 0.00 | 41 | 1008.4 |
| 20260502184749 | 67 | 108 | 0.0 | 1.7 | 0.00 | 0.00 | 0.00 | 43 | 1008.5 |
| 20260502184248 | 67 | 111 | 0.0 | 0.0 | 0.00 | 0.00 | 0.00 | 41 | 1008.5 |
| 20260502183747 | 68 | 114 | 0.9 | 1.7 | 0.00 | 0.00 | 0.00 | 40 | 1008.5 |
| 20260502183246 | 69 | 132 | 1.7 | 1.7 | 0.00 | 0.00 | 0.00 | 41 | 1008.4 |
| 20260502182745 | 69 | 120 | 1.7 | 2.6 | 0.00 | 0.00 | 0.00 | 38 | 1008.3 |
| 20260502182244 | 69 | 119 | 1.7 | 1.7 | 0.00 | 0.00 | 0.00 | 38 | 1008.3 |
| 20260502181743 | 69 | 120 | 1.7 | 1.7 | 0.00 | 0.00 | 0.00 | 38 | 1008.3 |
| 20260502181242 | 70 | 132 | 0.9 | 1.7 | 0.00 | 0.00 | 0.00 | 37 | 1008.3 |
| 20260502180742 | 70 | 101 | 0.0 | 0.0 | 0.00 | 0.00 | 0.00 | 38 | 1008.3 |
| 20260502180241 | 71 | 124 | 0.9 | 1.7 | 0.00 | 0.00 | 0.00 | 37 | 1008.3 |
| 20260502170230 | 75 | 338 | 3.5 | 7.0 | 0.00 | 0.00 | 0.00 | 32 | 1008.5 |
| 20260502164227 | 76 | 168 | 2.6 | 4.3 | 0.00 | 0.00 | 0.00 | 30 | 1008.6 |
| 20260502163726 | 76 | 169 | 2.6 | 4.3 | 0.00 | 0.00 | 0.00 | 30 | 1008.7 |
| 20260502163225 | 76 | 150 | 3.5 | 8.7 | 0.00 | 0.00 | 0.00 | 30 | 1008.8 |
| 20260502162724 | 76 | 126 | 3.5 | 6.1 | 0.00 | 0.00 | 0.00 | 31 | 1008.9 |
| 20260502162223 | 76 | 136 | 2.6 | 5.2 | 0.00 | 0.00 | 0.00 | 30 | 1008.8 |
| 20260502161723 | 77 | 159 | 3.5 | 6.1 | 0.00 | 0.00 | 0.00 | 30 | 1009.0 |
| 20260502161222 | 76 | 228 | 3.5 | 6.1 | 0.00 | 0.00 | 0.00 | 30 | 1009.1 |
| 20260502160721 | 76 | 139 | 4.3 | 8.7 | 0.00 | 0.00 | 0.00 | 30 | 1009.1 |
| 20260502160220 | 76 | 132 | 3.5 | 8.7 | 0.00 | 0.00 | 0.00 | 30 | 1009.2 |
| 20260502152213 | 76 | 131 | 3.5 | 8.7 | 0.00 | 0.00 | 0.00 | 30 | 1009.7 |
| 20260502151712 | 76 | 114 | 3.5 | 7.8 | 0.00 | 0.00 | 0.00 | 29 | 1009.8 |
| 20260502151211 | 77 | 151 | 3.5 | 7.0 | 0.00 | 0.00 | 0.00 | 28 | 1009.9 |
| 20260502150710 | 78 | 174 | 3.5 | 6.1 | 0.00 | 0.00 | 0.00 | 28 | 1009.9 |
| 20260502150209 | 78 | 168 | 3.5 | 7.8 | 0.00 | 0.00 | 0.00 | 28 | 1010.0 |
| 20260502130648 | 74 | 272 | 4.3 | 7.0 | 0.00 | 0.00 | 0.00 | 32 | 1011.3 |
| 20260502130147 | 76 | 222 | 3.5 | 8.7 | 0.00 | 0.00 | 0.00 | 31 | 1011.5 |
| 20260502123643 | 75 | 226 | 4.3 | 8.7 | 0.00 | 0.00 | 0.00 | 32 | 1011.7 |
| 20260502123142 | 75 | 249 | 3.5 | 7.0 | 0.00 | 0.00 | 0.00 | 32 | 1011.8 |
| 20260502122640 | 76 | 210 | 2.6 | 5.2 | 0.00 | 0.00 | 0.00 | 33 | 1011.9 |
| 20260502122139 | 75 | 266 | 2.6 | 4.3 | 0.00 | 0.00 | 0.00 | 31 | 1011.9 |
| 20260502121638 | 74 | 150 | 2.6 | 3.5 | 0.00 | 0.00 | 0.00 | 32 | 1012.0 |
| 20260502121137 | 75 | 221 | 3.5 | 4.3 | 0.00 | 0.00 | 0.00 | 32 | 1012.1 |
| 20260502120636 | 75 | 269 | 2.6 | 6.1 | 0.00 | 0.00 | 0.00 | 32 | 1012.1 |
| 20260502120135 | 74 | 108 | 1.7 | 5.2 | 0.00 | 0.00 | 0.00 | 31 | 1012.2 |
| 20260502115634 | 76 | 299 | 3.5 | 6.1 | 0.00 | 0.00 | 0.00 | 32 | 1012.3 |
| 20260502115133 | 75 | 266 | 4.3 | 6.1 | 0.00 | 0.00 | 0.00 | 32 | 1012.3 |
| 20260502114632 | 74 | 304 | 3.5 | 6.1 | 0.00 | 0.00 | 0.00 | 33 | 1012.4 |
| 20260502114131 | 75 | 342 | 3.5 | 6.1 | 0.00 | 0.00 | 0.00 | 32 | 1012.4 |
| 20260502113631 | 74 | 247 | 4.3 | 8.7 | 0.00 | 0.00 | 0.00 | 33 | 1012.5 |
| 20260502113130 | 74 | 179 | 5.2 | 8.7 | 0.00 | 0.00 | 0.00 | 33 | 1012.6 |
| 20260502112629 | 74 | 261 | 2.6 | 4.3 | 0.00 | 0.00 | 0.00 | 33 | 1012.5 |
| 20260502112128 | 74 | 145 | 2.6 | 5.2 | 0.00 | 0.00 | 0.00 | 32 | 1012.6 |
| 20260502111627 | 73 | 198 | 2.6 | 5.2 | 0.00 | 0.00 | 0.00 | 33 | 1012.7 |
| 20260502111126 | 74 | 296 | 3.5 | 7.8 | 0.00 | 0.00 | 0.00 | 34 | 1012.8 |
| 20260502110625 | 75 | 292 | 3.5 | 5.2 | 0.00 | 0.00 | 0.00 | 33 | 1012.7 |
| 20260502110124 | 76 | 271 | 2.6 | 5.2 | 0.00 | 0.00 | 0.00 | 32 | 1012.8 |
| 20260502105624 | 75 | 131 | 3.5 | 6.1 | 0.00 | 0.00 | 0.00 | 32 | 1012.8 |
| 20260502105123 | 74 | 151 | 3.5 | 7.0 | 0.00 | 0.00 | 0.00 | 32 | 1012.9 |
| 20260502104622 | 73 | 175 | 2.6 | 6.1 | 0.00 | 0.00 | 0.00 | 33 | 1013.0 |
| 20260502104121 | 73 | 2 | 3.5 | 6.1 | 0.00 | 0.00 | 0.00 | 34 | 1013.1 |
| 20260502103620 | 74 | 141 | 3.5 | 5.2 | 0.00 | 0.00 | 0.00 | 33 | 1013.1 |
| 20260502103119 | 75 | 203 | 2.6 | 5.2 | 0.00 | 0.00 | 0.00 | 34 | 1013.2 |
| 20260502102618 | 74 | 276 | 4.3 | 7.0 | 0.00 | 0.00 | 0.00 | 35 | 1013.2 |
| 20260502102117 | 74 | 212 | 3.5 | 7.0 | 0.00 | 0.00 | 0.00 | 36 | 1013.2 |
| 20260502101616 | 74 | 230 | 2.6 | 5.2 | 0.00 | 0.00 | 0.00 | 36 | 1013.3 |
| 20260502101115 | 73 | 202 | 2.6 | 6.1 | 0.00 | 0.00 | 0.00 | 34 | 1013.4 |
| 20260502100614 | 73 | 210 | 4.3 | 7.8 | 0.00 | 0.00 | 0.00 | 34 | 1013.4 |
| 20260502100114 | 73 | 216 | 2.6 | 3.5 | 0.00 | 0.00 | 0.00 | 34 | 1013.5 |
| 20260502091104 | 73 | 168 | 1.7 | 3.5 | 0.00 | 0.00 | 0.00 | 39 | 1013.9 |
| 20260502090603 | 72 | 130 | 2.6 | 4.3 | 0.00 | 0.00 | 0.00 | 41 | 1014.0 |
| 20260502090104 | 71 | 137 | 2.6 | 5.2 | 0.00 | 0.00 | 0.00 | 42 | 1014.0 |
| 20260502071041 | 64 | 270 | 1.7 | 2.6 | 0.00 | 0.00 | 0.00 | 52 | 1014.4 |
| 20260502070541 | 64 | 253 | 0.9 | 2.6 | 0.00 | 0.00 | 0.00 | 50 | 1014.4 |
| 20260502070040 | 62 | 180 | 1.7 | 2.6 | 0.00 | 0.00 | 0.00 | 54 | 1014.5 |
| 20260502065539 | 62 | 272 | 1.7 | 3.5 | 0.00 | 0.00 | 0.00 | 55 | 1014.5 |
| 20260502065038 | 62 | 187 | 1.7 | 3.5 | 0.00 | 0.00 | 0.00 | 54 | 1014.5 |
| 20260502064537 | 61 | 247 | 0.9 | 2.6 | 0.00 | 0.00 | 0.00 | 56 | 1014.5 |
| 20260502064036 | 60 | 179 | 0.0 | 1.7 | 0.00 | 0.00 | 0.00 | 57 | 1014.5 |
| 20260502063535 | 59 | 247 | 1.7 | 2.6 | 0.00 | 0.00 | 0.00 | 57 | 1014.5 |
| 20260502063034 | 59 | 245 | 1.7 | 2.6 | 0.00 | 0.00 | 0.00 | 58 | 1014.6 |
| 20260502062533 | 59 | 181 | 0.0 | 1.7 | 0.00 | 0.00 | 0.00 | 55 | 1014.6 |
| 20260502062033 | 58 | 240 | 1.7 | 2.6 | 0.00 | 0.00 | 0.00 | 59 | 1014.6 |
| 20260502061532 | 57 | 90 | 1.7 | 3.5 | 0.00 | 0.00 | 0.00 | 59 | 1014.7 |
| 20260502061031 | 57 | 173 | 1.7 | 3.5 | 0.00 | 0.00 | 0.00 | 59 | 1014.6 |
| 20260502060530 | 56 | 166 | 1.7 | 2.6 | 0.00 | 0.00 | 0.00 | 60 | 1014.6 |
| 20260502060029 | 56 | 243 | 1.7 | 3.5 | 0.00 | 0.00 | 0.00 | 61 | 1014.5 |
| 20260502055528 | 58 | 198 | 0.0 | 1.7 | 0.00 | 0.00 | 0.00 | 59 | 1014.6 |
| 20260502055027 | 57 | 270 | 0.9 | 1.7 | 0.00 | 0.00 | 0.00 | 58 | 1014.5 |
| 20260502054527 | 56 | 146 | 0.0 | 1.7 | 0.00 | 0.00 | 0.00 | 60 | 1014.6 |
| 20260502054025 | 55 | 250 | 0.9 | 1.7 | 0.00 | 0.00 | 0.00 | 63 | 1014.6 |
| 20260502053524 | 55 | 186 | 0.9 | 2.6 | 0.00 | 0.00 | 0.00 | 64 | 1014.7 |
| 20260502053023 | 54 | 144 | 0.9 | 2.6 | 0.00 | 0.00 | 0.00 | 62 | 1014.6 |
| 20260502052522 | 55 | 213 | 0.0 | 0.0 | 0.00 | 0.00 | 0.00 | 62 | 1014.6 |
| 20260502052021 | 56 | 130 | 0.0 | 0.0 | 0.00 | 0.00 | 0.00 | 61 | 1014.6 |
| 20260502051520 | 55 | 76 | 0.0 | 0.0 | 0.00 | 0.00 | 0.00 | 63 | 1014.6 |
| 20260502051019 | 54 | 66 | 0.0 | 0.0 | 0.00 | 0.00 | 0.00 | 64 | 1014.6 |
| 20260502050519 | 53 | 88 | 0.0 | 0.0 | 0.00 | 0.00 | 0.00 | 65 | 1014.6 |
| 20260502050018 | 52 | 84 | 0.0 | 0.0 | 0.00 | 0.00 | 0.00 | 67 | 1014.6 |
| 20260502045517 | 52 | 98 | 0.0 | 0.0 | 0.00 | 0.00 | 0.00 | 69 | 1014.5 |
| 20260502045016 | 52 | 48 | 0.0 | 0.0 | 0.00 | 0.00 | 0.00 | 67 | 1014.6 |
| 20260502044515 | 52 | 96 | 0.0 | 0.0 | 0.00 | 0.00 | 0.00 | 69 | 1014.6 |
| 20260502044014 | 53 | 76 | 0.0 | 0.0 | 0.00 | 0.00 | 0.00 | 67 | 1014.6 |
| 20260502043513 | 51 | 94 | 0.0 | 0.0 | 0.00 | 0.00 | 0.00 | 67 | 1014.6 |
| 20260502043013 | 50 | 85 | 0.0 | 0.0 | 0.00 | 0.00 | 0.00 | 69 | 1014.5 |
| 20260502042511 | 49 | 72 | 0.0 | 0.0 | 0.00 | 0.00 | 0.00 | 72 | 1014.5 |
| 20260502042010 | 48 | 78 | 0.0 | 0.0 | 0.00 | 0.00 | 0.00 | 75 | 1014.5 |
| 20260502041510 | 47 | 86 | 0.0 | 0.0 | 0.00 | 0.00 | 0.00 | 75 | 1014.5 |
| 20260502041009 | 46 | 48 | 0.0 | 0.0 | 0.00 | 0.00 | 0.00 | 78 | 1014.5 |
| 20260502040508 | 47 | 75 | 0.0 | 0.0 | 0.00 | 0.00 | 0.00 | 82 | 1014.4 |
| 20260502040007 | 45 | 94 | 0.0 | 0.0 | 0.00 | 0.00 | 0.00 | 81 | 1014.5 |
| 20260502035506 | 44 | 120 | 0.0 | 0.0 | 0.00 | 0.00 | 0.00 | 82 | 1014.4 |
| 20260502035005 | 43 | 126 | 0.0 | 0.0 | 0.00 | 0.00 | 0.00 | 85 | 1014.4 |
| 20260502034504 | 43 | 132 | 0.0 | 0.0 | 0.00 | 0.00 | 0.00 | 85 | 1014.4 |
| 20260502034004 | 44 | 149 | 0.0 | 0.0 | 0.00 | 0.00 | 0.00 | 85 | 1014.5 |
| 20260502033503 | 44 | 155 | 0.0 | 0.0 | 0.00 | 0.00 | 0.00 | 85 | 1014.5 |
| 20260502033002 | 44 | 156 | 0.0 | 0.0 | 0.00 | 0.00 | 0.00 | 83 | 1014.5 |
| 20260502032501 | 44 | 103 | 0.0 | 0.0 | 0.00 | 0.00 | 0.00 | 83 | 1014.5 |
| 20260502032000 | 44 | 96 | 0.0 | 0.0 | 0.00 | 0.00 | 0.00 | 83 | 1014.6 |
| 20260502031459 | 44 | 96 | 0.0 | 0.0 | 0.00 | 0.00 | 0.00 | 85 | 1014.6 |
| 20260502030958 | 44 | 78 | 0.0 | 0.0 | 0.00 | 0.00 | 0.00 | 85 | 1014.6 |
| 20260502030457 | 44 | 85 | 0.0 | 0.0 | 0.00 | 0.00 | 0.00 | 86 | 1014.6 |
| 20260502025956 | 44 | 115 | 0.0 | 0.0 | 0.00 | 0.00 | 0.00 | 85 | 1014.6 |
| 20260502025456 | 44 | 142 | 0.0 | 0.0 | 0.00 | 0.00 | 0.00 | 84 | 1014.6 |
| 20260502024454 | 45 | 132 | 0.0 | 0.0 | 0.00 | 0.00 | 0.00 | 82 | 1014.6 |
| 20260502023953 | 46 | 121 | 0.0 | 0.0 | 0.00 | 0.00 | 0.00 | 80 | 1014.6 |
| 20260502023452 | 46 | 95 | 0.0 | 0.0 | 0.00 | 0.00 | 0.00 | 80 | 1014.6 |
| 20260502022951 | 47 | 85 | 0.0 | 0.0 | 0.00 | 0.00 | 0.00 | 79 | 1014.6 |
| 20260502022450 | 46 | 76 | 0.9 | 1.7 | 0.00 | 0.00 | 0.00 | 78 | 1014.7 |
| 20260502021950 | 45 | 97 | 0.0 | 1.7 | 0.00 | 0.00 | 0.00 | 82 | 1014.6 |
| 20260502021449 | 45 | 98 | 0.0 | 0.0 | 0.00 | 0.00 | 0.00 | 82 | 1014.7 |
| 20260502020949 | 46 | 66 | 0.0 | 0.0 | 0.00 | 0.00 | 0.00 | 82 | 1014.6 |
| 20260502020447 | 46 | 44 | 0.0 | 0.0 | 0.00 | 0.00 | 0.00 | 82 | 1014.6 |
| 20260502015946 | 46 | 78 | 0.0 | 0.0 | 0.00 | 0.00 | 0.00 | 81 | 1014.7 |
| 20260502015445 | 47 | 126 | 0.0 | 0.0 | 0.00 | 0.00 | 0.00 | 81 | 1014.7 |
| 20260502014944 | 46 | 126 | 0.0 | 0.0 | 0.00 | 0.00 | 0.00 | 81 | 1014.7 |
| 20260502014443 | 46 | 162 | 0.0 | 0.0 | 0.00 | 0.00 | 0.00 | 81 | 1014.7 |
| 20260502013943 | 47 | 354 | 0.0 | 0.0 | 0.00 | 0.00 | 0.00 | 79 | 1014.6 |
| 20260502013442 | 47 | 4 | 0.0 | 0.0 | 0.00 | 0.00 | 0.00 | 78 | 1014.7 |
| 20260502012941 | 47 | 32 | 0.0 | 0.0 | 0.00 | 0.00 | 0.00 | 77 | 1014.7 |
| 20260502012440 | 47 | 84 | 0.0 | 0.0 | 0.00 | 0.00 | 0.00 | 76 | 1014.7 |
| 20260502011939 | 47 | 114 | 0.0 | 0.0 | 0.00 | 0.00 | 0.00 | 77 | 1014.7 |
| 20260502011438 | 48 | 162 | 0.0 | 0.0 | 0.00 | 0.00 | 0.00 | 75 | 1014.7 |
| 20260502010937 | 48 | 102 | 0.0 | 0.0 | 0.00 | 0.00 | 0.00 | 74 | 1014.8 |
| 20260502010437 | 48 | 94 | 0.0 | 0.0 | 0.00 | 0.00 | 0.00 | 75 | 1014.8 |
| 20260502005936 | 48 | 102 | 0.0 | 0.0 | 0.00 | 0.00 | 0.00 | 75 | 1014.8 |
| 20260502005435 | 48 | 95 | 0.0 | 0.0 | 0.00 | 0.00 | 0.00 | 75 | 1014.9 |
| 20260502004934 | 48 | 96 | 0.0 | 0.0 | 0.00 | 0.00 | 0.00 | 75 | 1014.9 |
| 20260502004433 | 48 | 83 | 0.0 | 0.0 | 0.00 | 0.00 | 0.00 | 76 | 1015.0 |
| 20260502003932 | 48 | 83 | 0.0 | 0.0 | 0.00 | 0.00 | 0.00 | 75 | 1015.0 |
| 20260502003431 | 48 | 114 | 0.0 | 0.0 | 0.00 | 0.00 | 0.00 | 76 | 1015.0 |
| 20260502002930 | 48 | 97 | 0.0 | 0.0 | 0.00 | 0.00 | 0.00 | 76 | 1015.0 |
| 20260502002430 | 48 | 96 | 0.0 | 0.0 | 0.00 | 0.00 | 0.00 | 75 | 1015.1 |
| 20260502001929 | 49 | 90 | 0.0 | 0.0 | 0.00 | 0.00 | 0.00 | 75 | 1015.1 |
| 20260502001428 | 49 | 94 | 0.0 | 0.0 | 0.00 | 0.00 | 0.00 | 74 | 1015.1 |
| 20260502000927 | 48 | 60 | 0.0 | 0.0 | 0.00 | 0.00 | 0.00 | 75 | 1015.1 |
| 20260502000426 | 48 | 78 | 0.0 | 0.0 | 0.00 | 0.00 | 0.00 | 76 | 1015.1 |
| 20260501235925 | 48 | 138 | 0.0 | 0.0 | 0.00 | 0.00 | 0.00 | 76 | 1015.1 |
| 20260501235424 | 48 | 76 | 0.0 | 0.0 | 0.00 | 0.00 | 0.00 | 75 | 1015.1 |
| 20260501234923 | 49 | 104 | 0.0 | 0.0 | 0.00 | 0.00 | 0.00 | 75 | 1015.1 |
| 20260501234422 | 49 | 97 | 0.0 | 0.0 | 0.00 | 0.00 | 0.00 | 75 | 1015.1 |
| 20260501233922 | 49 | 126 | 0.0 | 0.0 | 0.00 | 0.00 | 0.00 | 75 | 1015.1 |
| 20260501233421 | 48 | 342 | 0.0 | 0.0 | 0.00 | 0.00 | 0.00 | 75 | 1015.2 |
| 20260501232920 | 48 | 48 | 0.0 | 0.0 | 0.00 | 0.00 | 0.00 | 76 | 1015.1 |
| 20260501232419 | 49 | 96 | 0.0 | 0.0 | 0.00 | 0.00 | 0.00 | 75 | 1015.2 |